User: anonymous   Login
Location: Unspecified
(0.0000°N, 0.0000°E)
Time: 00:00:37
(UTC+00:00)
Language:

N. Korean satellite - Orbit

View from above orbital plane
View from above orbital plane
View from above satellite
View from above satellite

Ground track
Ground track

The orbit data is extracted from the following two-line orbital elements,

1 39026U 12072A   15064.09780260  .00010347  00000-0  49123-3 0  9997
2 39026 097.2961 099.2327 0046648 238.6391 121.0275 15.18450027122903
Epoch (UTC): 05 March 2015 02:20:50
Eccentricity: 0.0046648
inclination: 97.2961°
perigee height: 478 km
apogee height: 542 km
right ascension of ascending node: 99.2327°
argument of perigee: 238.6391°
revolutions per day: 15.18450027
mean anomaly at epoch: 121.0275°
orbit number at epoch: 12290

The dashed part of the orbit path shows where the satellite is in the earth's shadow,  

DLR